Truckee, CA

8:11 PM PST on December 04, 2016 (GMT -0800)
Truckee-Tahoe

Weather History for KTRK - October, 2013

Change the Weather History Date:

Wednesday, October 9, 2013

  Actual Average Record
Temperature  
Mean Temperature 37 °F -  
Max Temperature 44 °F 65 °F 84 °F (1996)
Min Temperature 30 °F 29 °F 15 °F (1985)
Degree Days  
Heating Degree Days 28    
Moisture  
Dew Point 26 °F    
Average Humidity 65    
Maximum Humidity 100    
Minimum Humidity 49    
Precipitation  
Precipitation 0.00 in - - ()
Sea Level Pressure  
Sea Level Pressure 29.77 in    
Wind  
Wind Speed 3 mph (NNE)    
Max Wind Speed 16 mph    
Max Gust Speed 24 mph    
Visibility 10 miles    
Events Snow    
Averages and records for this station are not official NWS values.
T = Trace of Precipitation, MM = Missing Value Source: NWS Daily Summary

Daily Weather History Graph

Daily Weather History Graph

Search for Another Location

Airport or City:

Trip Planner

Search our weather history database for the weather conditions in past years. The results will help you decide how hot, cold, wet, or windy it might be!

Date:

Astronomy

Oct. 09, 2013 Rise Set
Actual Time 7:04 AM PDT 6:30 PM PDT
Civil Twilight 6:37 AM PDT 6:56 PM PDT
Nautical Twilight 6:06 AM PDT 7:27 PM PDT
Astronomical Twilight 5:35 AM PDT 7:58 PM PDT
Moon 12:03 PM PDT (10/9) 10:11 PM PDT (10/9)
Length of Visible Light 12h 19m
Length of Day
11h 25m
Waxing Crescent, 26% of the Moon is Illuminated
Oct 9
Waxing Crescent
Oct 11
First Quarter
Oct 18
Full
Oct 26
Last Quarter
Nov 3
New

Hourly Weather History & Observations

Time (PDT) Temp. Windchill Dew Point Humidity Pressure Visibility Wind Dir Wind Speed Gust Speed Precip Events Conditions
12:15 AM 41.0 °F - 23.0 °F 49% 29.77 in 10.0 mi Calm Calm - N/A   Scattered Clouds
12:35 AM 39.2 °F - 23.0 °F 52% 29.77 in 10.0 mi Calm Calm - N/A   Scattered Clouds
12:55 AM 37.4 °F - 21.2 °F 52% 29.76 in 10.0 mi Calm Calm - N/A   Partly Cloudy
1:15 AM 37.4 °F - 21.2 °F 52% 29.75 in 10.0 mi Calm Calm - N/A   Clear
1:35 AM 37.4 °F - 21.2 °F 52% 29.75 in 10.0 mi Calm Calm - N/A   Partly Cloudy
1:55 AM 39.2 °F - 23.0 °F 52% 29.73 in 10.0 mi Calm Calm - N/A   Partly Cloudy
2:15 AM 37.4 °F - 21.2 °F 52% 29.73 in 10.0 mi Calm Calm - N/A   Scattered Clouds
2:35 AM 37.4 °F 34.9 °F 23.0 °F 56% 29.72 in 10.0 mi North 3.5 mph - N/A   Partly Cloudy
2:55 AM 37.4 °F 34.9 °F 23.0 °F 56% 29.70 in 10.0 mi NNW 3.5 mph - N/A   Clear
3:15 AM 37.4 °F - 23.0 °F 56% 29.70 in 10.0 mi Calm Calm - N/A   Partly Cloudy
3:35 AM 33.8 °F - 21.2 °F 60% 29.69 in 10.0 mi Calm Calm - N/A   Scattered Clouds
3:55 AM 35.6 °F 32.8 °F 21.2 °F 56% 29.68 in 10.0 mi SE 3.5 mph - N/A   Partly Cloudy
4:15 AM 35.6 °F - 21.2 °F 56% 29.68 in 10.0 mi Calm Calm - N/A   Partly Cloudy
4:35 AM 35.6 °F 29.9 °F 23.0 °F 60% 29.67 in 10.0 mi NNW 6.9 mph - N/A   Scattered Clouds
4:55 AM 32.0 °F 27.5 °F 21.2 °F 64% 29.68 in 10.0 mi SSE 4.6 mph - N/A   Mostly Cloudy
5:15 AM 32.0 °F 26.4 °F 21.2 °F 64% 29.68 in 10.0 mi SSE 5.8 mph - N/A   Mostly Cloudy
5:35 AM 35.6 °F - 23.0 °F 60% 29.69 in 10.0 mi Calm Calm - N/A   Overcast
5:55 AM 32.0 °F - 21.2 °F 64% 29.69 in 10.0 mi Calm Calm - N/A   Mostly Cloudy
6:15 AM 32.0 °F - 21.2 °F 64% 29.70 in 10.0 mi Calm Calm - N/A   Overcast
6:35 AM 35.6 °F 31.7 °F 23.0 °F 60% 29.70 in 10.0 mi NE 4.6 mph - N/A   Mostly Cloudy
6:55 AM 35.6 °F 30.7 °F 23.0 °F 60% 29.70 in 10.0 mi North 5.8 mph - N/A   Overcast
7:50 AM 32.0 °F 27.5 °F 30.2 °F 93% 29.73 in 0.5 mi East 4.6 mph - N/A Snow Snow
8:55 AM 32.0 °F - 32.0 °F 100% 29.74 in 5.0 mi Calm Calm - N/A Snow Light Snow
9:50 AM 33.8 °F - 32.0 °F 93% 29.75 in 6.0 mi Calm Calm - N/A   Overcast
10:55 AM 39.2 °F 31.2 °F 33.8 °F 81% 29.75 in 8.0 mi NNE 13.8 mph - N/A   Mostly Cloudy
11:55 AM 41.0 °F 33.9 °F 32.0 °F 70% 29.76 in 8.0 mi North 12.7 mph 21.9 mph N/A   Overcast
1:03 PM 44.6 °F 37.4 °F 32.0 °F 61% 29.75 in 8.0 mi NE 16.1 mph 24.2 mph N/A   Overcast
1:50 PM 41.0 °F 34.3 °F 32.0 °F 70% 29.76 in 8.0 mi NNE 11.5 mph 19.6 mph N/A   Overcast
2:55 PM 41.0 °F 34.7 °F 30.2 °F 65% 29.97 in 10.0 mi North 10.4 mph - N/A   Overcast
3:55 PM 42.8 °F 37.5 °F 28.4 °F 57% 29.78 in 10.0 mi NNE 9.2 mph - N/A   Overcast
4:50 PM 41.0 °F 36.4 °F 28.4 °F 61% 29.79 in 10.0 mi NNE 6.9 mph - N/A   Overcast
5:45 PM 41.0 °F 35.2 °F 28.4 °F 61% 29.80 in 10.0 mi North 9.2 mph - N/A   Mostly Cloudy
5:55 PM 41.0 °F 36.4 °F 28.4 °F 61% 29.79 in 10.0 mi North 6.9 mph - N/A   Overcast
6:15 PM 41.0 °F 37.1 °F 28.4 °F 61% 29.80 in 10.0 mi North 5.8 mph - N/A   Overcast
6:35 PM 41.0 °F 38.0 °F 28.4 °F 61% 29.81 in 10.0 mi North 4.6 mph - N/A   Mostly Cloudy
6:55 PM 41.0 °F 38.0 °F 28.4 °F 61% 29.81 in 10.0 mi North 4.6 mph - N/A   Mostly Cloudy
7:15 PM 41.0 °F 37.1 °F 28.4 °F 61% 29.81 in 10.0 mi North 5.8 mph - N/A   Overcast
7:35 PM 41.0 °F 36.4 °F 28.4 °F 61% 29.82 in 10.0 mi North 6.9 mph - N/A   Overcast
7:55 PM 41.0 °F 36.4 °F 28.4 °F 61% 29.82 in 10.0 mi North 6.9 mph - N/A   Overcast
8:15 PM 39.2 °F - 28.4 °F 65% 29.83 in 10.0 mi Calm Calm - N/A   Overcast
8:35 PM 39.2 °F - 28.4 °F 65% 29.84 in 10.0 mi Calm Calm - N/A   Overcast
8:55 PM 39.2 °F - 30.2 °F 70% 29.84 in 10.0 mi Calm Calm - N/A   Overcast
9:15 PM 37.4 °F - 28.4 °F 70% 29.85 in 10.0 mi Calm Calm - N/A   Overcast
9:55 PM 39.2 °F - 28.4 °F 65% 29.86 in 10.0 mi Calm Calm - N/A   Overcast
10:15 PM 37.4 °F - 30.2 °F 75% 29.86 in 10.0 mi Calm Calm - N/A   Overcast
10:35 PM 35.6 °F 31.7 °F 28.4 °F 75% 29.87 in 10.0 mi SE 4.6 mph - N/A   Mostly Cloudy
10:55 PM 32.0 °F - 28.4 °F 87% 29.87 in 10.0 mi Calm Calm - N/A   Mostly Cloudy
11:15 PM 32.0 °F 28.7 °F 28.4 °F 87% 29.87 in 10.0 mi ENE 3.5 mph - N/A   Partly Cloudy
11:35 PM 30.2 °F 26.7 °F 26.6 °F 86% 29.87 in 10.0 mi SSW 3.5 mph - N/A   Clear
11:55 PM 32.0 °F - 28.4 °F 87% 29.87 in 10.0 mi Calm Calm - N/A   Clear